Weather History for EGLC - July, 2013

Change the Weather History Date:

Tuesday, July 16, 2013

  Actual Average Record
Temperature  
Mean Temperature 75 °F -  
Max Temperature 86 °F 70 °F 86 °F (2013)
Min Temperature 64 °F 58 °F 53 °F (1996)
Cooling Degree Days 10    
Growing Degree Days 25 (Base 50)    
Moisture  
Dew Point 55 °F    
Average Humidity 52    
Maximum Humidity 73    
Minimum Humidity 29    
Precipitation  
Precipitation 0.00 in - - ()
Sea Level Pressure  
Sea Level Pressure 30.20 in    
Wind  
Wind Speed 3 mph ()    
Max Wind Speed 13 mph    
Max Gust Speed -    
Visibility 6.2 miles    
Events      
Averages and records for this station are not official NWS values.
T = Trace of Precipitation, MM = Missing Value Source: Averaged Metar Reports

Daily Weather History Graph

Daily Weather History Graph

Search for Another Location

Airport or City:

Trip Planner

Search our weather history database for the weather conditions in past years. The results will help you decide how hot, cold, wet, or windy it might be!

Date:

Astronomy

Jul. 16, 2013 Rise Set
Actual Time 5:01 AM BST 9:09 PM BST
Civil Twilight 4:17 AM BST 9:53 PM BST
Nautical Twilight 3:12 AM BST 10:57 PM BST
Astronomical Twilight 1:38 AM BST 12:33 AM BST
Moon 2:14 PM BST (7/16) No Moon Set
Length of Visible Light 17h 36m
Length of Day
16h 07m
First Quarter, 54% of the Moon is Illuminated
Jul 16
First Quarter
Jul 22
Full
Jul 29
Last Quarter
Aug 6
New
Aug 14
First Quarter

Hourly Weather History & Observations

Time (BST) Temp. Heat Index Dew Point Humidity Pressure Visibility Wind Dir Wind Speed Gust Speed Precip Events Conditions
12:20 AM 68.0 °F - 57.2 °F 68% 30.21 in 6.2 mi East 5.8 mph - N/A   Unknown
12:50 AM 68.0 °F - 57.2 °F 68% 30.21 in 6.2 mi ESE 4.6 mph - N/A   Unknown
1:20 AM 66.2 °F - 55.4 °F 68% 30.21 in 6.2 mi ESE 4.6 mph - N/A   Unknown
1:50 AM 66.2 °F - 55.4 °F 68% 30.21 in 6.2 mi East 4.6 mph - N/A   Unknown
2:20 AM 66.2 °F - 55.4 °F 68% 30.21 in 6.2 mi East 4.6 mph - N/A   Unknown
2:50 AM 66.2 °F - 55.4 °F 68% 30.21 in 6.2 mi East 2.3 mph - N/A   Unknown
3:20 AM 66.2 °F - 55.4 °F 68% 30.21 in 6.2 mi Calm Calm - N/A   Unknown
3:50 AM 66.2 °F - 57.2 °F 73% 30.21 in 6.2 mi Calm Calm - N/A   Unknown
4:20 AM 66.2 °F - 55.4 °F 68% 30.21 in 6.2 mi Calm Calm - N/A   Unknown
4:50 AM 66.2 °F - 55.4 °F 68% 30.21 in 6.2 mi NE 3.5 mph - N/A   Unknown
5:20 AM 64.4 °F - 55.4 °F 73% 30.21 in 6.2 mi NE 3.5 mph - N/A   Unknown
5:50 AM 64.4 °F - 55.4 °F 73% 30.21 in 6.2 mi Calm Calm - N/A   Unknown
6:20 AM 64.4 °F - 55.4 °F 73% 30.21 in - Variable 2.3 mph - N/A   Clear
6:50 AM 66.2 °F - 55.4 °F 68% 30.21 in - NNE 2.3 mph - N/A   Clear
7:20 AM 66.2 °F - 55.4 °F 68% 30.21 in - Variable 2.3 mph - N/A   Clear
7:50 AM 68.0 °F - 55.4 °F 64% 30.21 in - Calm Calm - N/A   Clear
8:20 AM 69.8 °F - 55.4 °F 60% 30.21 in - Calm Calm - N/A   Clear
8:50 AM 69.8 °F - 55.4 °F 60% 30.21 in - Variable 2.3 mph - N/A   Clear
9:20 AM 71.6 °F - 55.4 °F 57% 30.21 in - Variable 2.3 mph - N/A   Clear
9:50 AM 73.4 °F - 55.4 °F 53% 30.21 in - Calm Calm - N/A   Clear
10:20 AM 75.2 °F - 55.4 °F 50% 30.21 in - Variable 2.3 mph - N/A   Clear
10:50 AM 77.0 °F - 55.4 °F 47% 30.21 in - Variable 2.3 mph - N/A   Clear
11:20 AM 77.0 °F - 55.4 °F 47% 30.21 in - Variable 3.5 mph - N/A   Clear
11:50 AM 80.6 °F 80.3 °F 53.6 °F 39% 30.21 in 6.2 mi Variable 2.3 mph - N/A   Partly Cloudy
12:20 PM 82.4 °F - 51.8 °F 35% 30.21 in - Variable 2.3 mph - N/A   Clear
12:50 PM 84.2 °F - 48.2 °F 29% 30.21 in - Variable 2.3 mph - N/A   Clear
1:20 PM 84.2 °F - 48.2 °F 29% 30.21 in - Variable 3.5 mph - N/A   Clear
1:50 PM 84.2 °F - 50.0 °F 30% 30.18 in - Variable 3.5 mph - N/A   Clear
2:20 PM 84.2 °F - 48.2 °F 29% 30.18 in - Variable 4.6 mph - N/A   Clear
2:50 PM 84.2 °F - 48.2 °F 29% 30.18 in - Variable 2.3 mph - N/A   Clear
3:20 PM 86.0 °F - 50.0 °F 29% 30.18 in - Variable 2.3 mph - N/A   Clear
3:50 PM 86.0 °F - 50.0 °F 29% 30.18 in - Calm Calm - N/A   Clear
4:20 PM 86.0 °F - 51.8 °F 31% 30.18 in - Variable 2.3 mph - N/A   Clear
4:50 PM 86.0 °F - 50.0 °F 29% 30.18 in - Variable 3.5 mph - N/A   Clear
5:20 PM 84.2 °F - 51.8 °F 33% 30.18 in - ESE 5.8 mph - N/A   Clear
5:50 PM 82.4 °F 82.0 °F 57.2 °F 42% 30.18 in - East 11.5 mph - N/A   Clear
6:20 PM 80.6 °F 80.8 °F 57.2 °F 45% 30.18 in - East 12.7 mph - N/A   Clear
6:50 PM 80.6 °F 81.1 °F 59.0 °F 48% 30.18 in - ESE 11.5 mph - N/A   Clear
7:20 PM 78.8 °F - 59.0 °F 51% 30.18 in - ESE 11.5 mph - N/A   Clear
7:50 PM 78.8 °F - 59.0 °F 51% 30.18 in - SE 11.5 mph - N/A   Clear
8:20 PM 78.8 °F - 59.0 °F 51% 30.18 in - SSE 10.4 mph - N/A   Clear
8:50 PM 77.0 °F - 59.0 °F 54% 30.18 in - SSE 8.1 mph - N/A   Clear
9:20 PM 75.2 °F - 57.2 °F 53% 30.18 in 6.2 mi SSE 6.9 mph - N/A   Unknown
9:50 PM 75.2 °F - 55.4 °F 50% 30.18 in 6.2 mi SSE 6.9 mph - N/A   Unknown
10:20 PM 75.2 °F - 55.4 °F 50% 30.21 in 6.2 mi Variable 3.5 mph - N/A   Unknown
10:50 PM 73.4 °F - 55.4 °F 53% 30.21 in 6.2 mi Calm Calm - N/A   Unknown
11:20 PM 73.4 °F - 53.6 °F 50% 30.21 in 6.2 mi Variable 2.3 mph - N/A   Unknown
11:50 PM 73.4 °F - 53.6 °F 50% 30.21 in 6.2 mi South 4.6 mph - N/A   Unknown